Location: Unspecified
(0.0000°N, 0.0000°E)
Time: 23:20:54
(UTC+01:00)

Iridium 39 - Visible Passes

Search period start: 25 January 2015 00:00
Search period end: 04 February 2015 00:00
Orbit: 776 x 779 km, 86.4° (Epoch: 25 January)

Date Brightness Start Highest point End Pass type
(mag) Time Alt. Az. Time Alt. Az. Time Alt. Az.
25 Jan 8.9 05:26:02 10° ENE 05:28:30 14° E 05:31:21 10° ESE visible
25 Jan 9.5 19:41:26 10° WSW 19:42:53 11° W 19:43:50 10° WNW visible
26 Jan 6.0 06:30:28 10° N 06:35:39 72° W 06:40:50 10° S visible
27 Jan 6.9 05:57:09 10° NNE 06:02:09 51° E 06:07:13 10° SSE visible
28 Jan 8.3 05:24:40 10° NE 05:28:37 23° E 05:32:45 10° SE visible
29 Jan 6.4 06:30:46 10° NNW 06:35:41 43° W 06:40:36 10° SSW visible
30 Jan 6.1 05:57:00 10° N 06:02:11 83° E 06:07:26 10° S visible
31 Jan 7.5 05:23:59 10° NNE 05:28:42 37° E 05:33:31 10° SSE visible
01 Feb 8.6 04:52:02 10° NE 04:55:08 17° E 04:58:32 10° SE visible
01 Feb 6.9 06:31:22 10° NNW 06:35:46 27° W 06:40:02 10° SSW visible
02 Feb 6.0 05:57:07 10° N 06:02:14 60° W 06:07:23 10° S visible
03 Feb 6.5 05:24:04 12° NNE 05:28:45 60° E 05:33:55 10° S visible
